User: anonymous   Login
Location: Elstree
(51.6403°N, 0.2969°W)
Time: 22:36:46
(UTC+00:00)
Language:

FALCON 9 DEB - Orbit

View from above orbital plane
View from above orbital plane
View from above satellite
View from above satellite

Ground track
Ground track

The orbit data is extracted from the following two-line orbital elements,

1 46087U 20055BN  21129.33890327  .00010509  00000-0  10993-3 0  9997
2 46087  53.0084  27.2782 0013231  98.0112 262.2403 15.65033825 47576
Epoch (UTC): 09 May 2021 08:08:01
Eccentricity: 0.0013231
inclination: 53.0084°
perigee height: 364 km
apogee height: 382 km
right ascension of ascending node: 27.2782°
argument of perigee: 98.0112°
revolutions per day: 15.65033825
mean anomaly at epoch: 262.2403°
orbit number at epoch: 4757

The dashed part of the orbit path shows where the satellite is in the earth's shadow,  

DLR